Погода в Чернянке

Россия / Белгородская область     50°56′20″N   37°48′22″E
темп.,
°C
ветер,
м/с
пор.,
м/с
влажн.,
%
обл.,
%
осадки,
мм/ч
давл.,
гПа
погр.,
м
11 апреля, вс
вс1100:00+5с22570 0.0 102628
03:00+4с22613 0.0 102724
06:00+3с376591 0.0 1028138
09:00+8ссв6105198 0.0 1029606
12:00+11ссв683880 0.0 10281004
15:00+13ссв79345 0.0 10271142
18:00+11св61043100 0.0 1027653
21:00+8св51254100 0.0 1027425
12 апреля, пн
пн1200:00+8св61260100 0.0 1027509
03:00+7св51073100 0.0 1026356
06:00+6св51091100 0.0 1026309
09:00+10всв61081100 0.0 1025392
12:00+17всв695899 0.0 1023683
15:00+21в7942100 0.0 10211207
18:00+19вюв374977 0.0 1021145
21:00+14юв346556 0.0 102341
13 апреля, вт
вт1300:00+13в3468100 0.0 102264
03:00+11вюв387788 0.0 1023149
06:00+10вюв397999 0.0 1023174
09:00+15юв596070 0.0 1023558
12:00+18юв61050100 0.0 10221268
15:00+20юв79365 0.0 10211793
18:00+19юв474515 0.0 1020238
21:00+14ююв226273 0.0 102117
14 апреля, ср
ср1400:00+12ююв117062 0.0 102110
03:00+11в3475100 0.0 102149
06:00+10всв3577100 0.0 102094
09:00+14юв595689 0.0 1019510
12:00+18юв574532 0.0 10181434
15:00+19ююв5737100 0.0 10172094
18:00+17ююз3552100 0.0 1017216
21:00+13ссз117174 0.0 101711
15 апреля, чт
чт1500:00+12ссв2273100 0.0 101639
03:00+11всв2259100 0.0 101527
06:00+11всв2362100 0.0 101448
09:00+13в4654100 0.0 1013367
12:00+16ююв2347100 0.0 10111148
15:00+11юв6981100 1.8 1012820
18:00+10ю2389100 3.0 1010287
21:00+9ю4891100 3.5 1010468